AD5L Weather Reports


Display with metric or nautical units.
time (UTC)temp
F
wind
direction
speed
MPH
gust
MPH
rain 1hr
in
rain 24hr
in
rain mn
in
humidity
%
barometer
mb
20260903042327 83 128 2.0 5.0 0.00 0.00 0.00 75 1013.8
20260903041338 83 110 2.0 6.0 0.00 0.00 0.00 75 1013.9
20260903040329 84 77 4.0 10.0 0.00 0.00 0.00 74 1014.0
20260903035339 84 74 3.0 9.0 0.00 0.00 0.00 74 1014.1
20260903034332 84 75 4.0 10.0 0.00 0.00 0.00 75 1014.1
20260903033342 85 109 6.0 10.0 0.00 0.00 0.00 74 1014.0
20260903032324 85 88 7.0 12.0 0.00 0.00 0.00 72 1013.9
20260903031342 86 72 3.0 6.0 0.00 0.00 0.00 68 1013.4
20260903030343 87 69 1.0 8.0 0.00 0.00 0.00 66 1013.2
20260903025325 87 71 6.0 10.0 0.00 0.00 0.00 65 1013.1
20260903024341 87 103 7.0 12.0 0.00 0.00 0.00 64 1013.2
20260903023322 88 97 1.0 2.0 0.00 0.00 0.00 63 1012.7
20260903022334 88 141 0.0 1.0 0.00 0.00 0.00 63 1012.4
20260903021325 88 141 0.0 1.0 0.00 0.00 0.00 63 1012.2
20260903020337 88 145 0.0 2.0 0.00 0.00 0.00 63 1012.1
20260903015327 89 145 0.0 1.0 0.00 0.00 0.00 61 1012.0
20260903014339 89 145 0.0 1.0 0.00 0.00 0.00 61 1012.0
20260903013330 89 145 0.0 1.0 0.00 0.00 0.00 62 1012.0
20260903012321 90 145 0.0 1.0 0.00 0.00 0.00 60 1011.9
20260903011332 91 145 0.0 3.0 0.00 0.00 0.00 59 1011.9
20260903010322 92 140 0.0 2.0 0.00 0.00 0.00 57 1011.8
20260903005332 92 52 0.0 0.0 0.00 0.00 0.00 57 1011.7
20260903004323 93 52 0.0 1.0 0.00 0.00 0.00 56 1011.8
20260903003334 93 52 1.0 2.0 0.00 0.00 0.00 57 1011.8
20260903002338 95 267 0.0 0.0 0.00 0.00 0.00 54 1011.7
20260903001329 97 266 0.0 1.0 0.00 0.00 0.00 50 1011.7
20260903000340 96 267 0.0 1.0 0.00 0.00 0.00 50 1011.8
20260902235322 98 265 0.0 1.0 0.00 0.00 0.00 48 1011.7
20260902234342 97 255 1.0 4.0 0.00 0.00 0.00 49 1011.7
20260902233324 96 122 1.0 3.0 0.00 0.00 0.00 50 1011.8
20260902232345 96 22 1.0 4.0 0.00 0.00 0.00 49 1011.8
20260902231326 96 148 2.0 9.0 0.00 0.00 0.00 50 1011.9
20260902230337 96 221 5.0 15.0 0.00 0.00 0.00 53 1011.7
20260902225329 100 192 2.0 6.0 0.00 0.00 0.00 46 1011.7
20260902224340 99 20 3.0 7.0 0.00 0.00 0.00 48 1011.4
20260902223329 98 48 1.0 5.0 0.00 0.00 0.00 47 1011.4
20260902222336 99 348 4.0 8.0 0.00 0.00 0.00 46 1011.4
20260902221327 99 288 2.0 9.0 0.00 0.00 0.00 46 1011.6
20260902220337 98 35 2.0 9.0 0.00 0.00 0.00 49 1011.8
20260902215328 97 18 3.0 8.0 0.00 0.00 0.00 50 1012.0
20260902214339 97 15 6.0 10.0 0.00 0.00 0.00 50 1011.9
20260902213330 99 320 3.0 8.0 0.00 0.00 0.00 43 1011.9
20260902212340 102 276 2.0 5.0 0.00 0.00 0.00 41 1011.8
20260902211332 101 282 3.0 5.0 0.00 0.00 0.00 43 1011.9
20260902210343 100 305 1.0 5.0 0.00 0.00 0.00 44 1012.0
20260902205324 99 316 4.0 7.0 0.00 0.00 0.00 42 1012.2
20260902204344 100 275 2.0 5.0 0.00 0.00 0.00 45 1012.4
20260902203323 99 176 1.0 2.0 0.00 0.00 0.00 48 1012.5
20260902202344 97 59 1.0 4.0 0.00 0.00 0.00 50 1012.6
20260902201324 97 80 1.0 6.0 0.00 0.00 0.00 51 1012.7
20260902200334 96 356 0.0 3.0 0.00 0.00 0.00 55 1013.0
20260902195326 95 75 2.0 5.0 0.00 0.00 0.00 55 1013.1
20260902194337 95 319 1.0 6.0 0.00 0.00 0.00 55 1013.3
20260902193325 97 24 6.0 9.0 0.00 0.00 0.00 51 1013.4
20260902192336 99 235 3.0 5.0 0.00 0.00 0.00 47 1013.5
20260902191328 99 80 0.0 7.0 0.00 0.00 0.00 46 1013.7
20260902190338 101 279 4.0 8.0 0.00 0.00 0.00 45 1013.9
20260902185329 101 240 1.0 6.0 0.00 0.00 0.00 45 1014.0
20260902184337 100 243 3.0 9.0 0.00 0.00 0.00 46 1014.2
20260902183328 99 260 3.0 9.0 0.00 0.00 0.00 47 1014.4
20260902182338 100 272 1.0 7.0 0.00 0.00 0.00 47 1014.4
20260902181330 98 276 2.0 6.0 0.00 0.00 0.00 48 1014.7
20260902180336 97 85 2.0 3.0 0.00 0.00 0.00 49 1015.0
20260902175346 97 215 3.0 6.0 0.00 0.00 0.00 49 1015.1
20260902174336 98 326 2.0 5.0 0.00 0.00 0.00 50 1015.3
20260902173346 97 29 1.0 3.0 0.00 0.00 0.00 50 1015.5
20260902172338 98 63 1.0 5.0 0.00 0.00 0.00 50 1015.6
20260902171348 96 250 3.0 9.0 0.00 0.00 0.00 51 1015.9
20260902170330 95 250 4.0 8.0 0.00 0.00 0.00 52 1015.9
20260902165350 96 276 1.0 6.0 0.00 0.00 0.00 53 1016.1
20260902164330 95 276 1.0 6.0 0.00 0.00 0.00 55 1016.2
20260902163321 94 279 2.0 7.0 0.00 0.00 0.00 55 1016.4
20260902162332 93 206 2.0 6.0 0.00 0.00 0.00 58 1016.3
20260902161321 94 279 2.0 8.0 0.00 0.00 0.00 56 1016.3
20260902160333 93 349 2.0 6.0 0.00 0.00 0.00 59 1016.4
20260902155340 92 278 1.0 5.0 0.00 0.00 0.00 60 1016.4
20260902154331 91 262 1.0 6.0 0.00 0.00 0.00 61 1016.4
20260902153322 90 344 2.0 7.0 0.00 0.00 0.00 62 1016.4
20260902152333 90 279 2.0 5.0 0.00 0.00 0.00 63 1016.4
20260902151321 90 300 1.0 5.0 0.00 0.00 0.00 64 1016.4
20260902150332 89 318 1.0 4.0 0.00 0.00 0.00 66 1016.4
20260902145323 88 74 1.0 3.0 0.00 0.00 0.00 67 1016.4
20260902144334 88 266 0.0 2.0 0.00 0.00 0.00 67 1016.5
20260902143345 87 246 0.0 5.0 0.00 0.00 0.00 68 1016.5
20260902142333 86 282 3.0 7.0 0.00 0.00 0.00 70 1016.4
20260902141343 86 271 2.0 6.0 0.00 0.00 0.00 70 1016.4
20260902140334 86 224 0.0 3.0 0.00 0.00 0.00 71 1016.2
20260902135339 85 245 0.0 3.0 0.00 0.00 0.00 72 1016.1
20260902134321 84 233 1.0 2.0 0.00 0.00 0.00 73 1016.1
20260902133332 83 73 0.0 1.0 0.00 0.00 0.00 79 1016.1
20260902132322 82 72 0.0 1.0 0.00 0.00 0.00 80 1015.9
20260902131333 81 72 1.0 1.0 0.00 0.00 0.00 81 1015.8
20260902130324 79 73 0.0 1.0 0.00 0.00 0.00 83 1015.7
20260902125334 77 73 0.0 1.0 0.00 0.00 0.00 86 1015.6
20260902124322 76 73 0.0 1.0 0.00 0.00 0.00 89 1015.5
20260902123333 75 72 0.0 0.0 0.00 0.00 0.00 89 1015.5
20260902122325 75 72 0.0 1.0 0.00 0.00 0.00 89 1015.4
20260902121335 75 72 0.0 1.0 0.00 0.00 0.00 89 1015.4
20260902120326 75 72 0.0 1.0 0.00 0.00 0.00 90 1015.4
20260902115336 75 72 0.0 2.0 0.00 0.00 0.00 90 1015.4
20260902114326 75 15 1.0 4.0 0.00 0.00 0.00 89 1015.4
20260902113337 75 134 1.0 1.0 0.00 0.00 0.00 89 1015.3
20260902112328 76 134 0.0 0.0 0.00 0.00 0.00 87 1015.2
20260902111340 77 134 0.0 1.0 0.00 0.00 0.00 86 1015.2
20260902110332 77 134 0.0 1.0 0.00 0.00 0.00 86 1015.1
20260902105341 77 134 0.0 1.0 0.00 0.00 0.00 86 1014.9
20260902104323 77 134 0.0 1.0 0.00 0.00 0.00 86 1015.0
20260902103343 77 134 0.0 1.0 0.00 0.00 0.00 86 1015.0
20260902102321 77 134 0.0 1.0 0.00 0.00 0.00 87 1015.1
20260902101332 77 134 0.0 1.0 0.00 0.00 0.00 87 1015.0
20260902100321 76 134 0.0 1.0 0.00 0.00 0.00 88 1015.2
20260902095332 76 134 0.0 0.0 0.00 0.00 0.00 88 1015.2
20260902094322 77 134 0.0 1.0 0.00 0.00 0.00 86 1015.2
20260902093329 77 134 0.0 1.0 0.00 0.00 0.00 86 1015.3
20260902092340 77 134 0.0 0.0 0.00 0.00 0.00 86 1015.2
20260902091330 77 134 0.0 0.0 0.00 0.00 0.00 85 1015.3
20260902090322 77 134 0.0 0.0 0.00 0.00 0.00 85 1015.4
20260902085333 77 134 0.0 0.0 0.00 0.00 0.00 85 1015.2
20260902084323 78 134 0.0 0.0 0.00 0.00 0.00 84 1015.2
20260902083334 78 134 0.0 0.0 0.00 0.00 0.00 83 1015.3
20260902082322 78 134 0.0 1.0 0.00 0.00 0.00 82 1015.2
20260902081334 79 134 0.0 1.0 0.00 0.00 0.00 82 1015.4
20260902080323 79 134 0.0 1.0 0.00 0.00 0.00 82 1015.4
20260902075333 79 134 0.0 1.0 0.00 0.00 0.00 82 1015.3
20260902074344 79 134 0.0 1.0 0.00 0.00 0.00 81 1015.4
20260902073335 79 134 0.0 1.0 0.00 0.00 0.00 81 1015.4
20260902072346 79 134 0.0 1.0 0.00 0.00 0.00 80 1015.4
20260902071328 80 134 0.0 1.0 0.00 0.00 0.00 79 1015.6
20260902070349 80 134 0.0 1.0 0.00 0.00 0.00 78 1015.5
20260902065332 80 134 0.0 4.0 0.00 0.00 0.00 77 1015.5
20260902064322 80 96 1.0 4.0 0.00 0.00 0.00 77 1015.6
20260902063333 81 89 0.0 3.0 0.00 0.00 0.00 76 1015.7
20260902062341 81 97 0.0 3.0 0.00 0.00 0.00 75 1015.6
20260902061332 81 92 2.0 5.0 0.00 0.00 0.00 74 1015.7
20260902060323 81 103 1.0 2.0 0.00 0.00 0.00 74 1015.8
20260902055334 82 118 0.0 1.0 0.00 0.00 0.00 73 1015.6
20260902054324 83 139 0.0 1.0 0.00 0.00 0.00 71 1015.4
20260902053334 83 139 0.0 1.0 0.00 0.00 0.00 70 1015.4
20260902052326 83 127 0.0 2.0 0.00 0.00 0.00 70 1015.3
20260902051333 84 133 0.0 3.0 0.00 0.00 0.00 69 1015.3
20260902050322 84 132 0.0 4.0 0.00 0.00 0.00 69 1015.3
20260902045333 84 83 2.0 3.0 0.00 0.00 0.00 69 1015.5
20260902044344 85 97 1.0 3.0 0.00 0.00 0.00 69 1015.5
20260902043332 85 122 1.0 6.0 0.00 0.00 0.00 69 1015.4